• In Hungary
  • List of Countries
  • For 7 days
  • Water Temperature
  • Satellite Maps
  • Weather Map
  • News
  • Weather Widgets
  • user-avatar
    Login

    Hourly Weather Ajman

    Today, 16 July, Monday

    Time Temperature Precipitation Wind Pressure Humidity
    00:00 +37°C° 0 mm 3 mps 744 mmHg 61%
    01:00 +36°C° 0 mm 3 mps 744 mmHg 62%
    02:00 +36°C° 0 mm 3 mps 744 mmHg 62%
    03:00 +36°C° 0 mm 4 mps 744 mmHg 61%
    04:00 +36°C° 0 mm 4 mps 744 mmHg 60%
    05:00 +36°C° 0 mm 4 mps 744 mmHg 59%
    06:00 +36°C° 0 mm 4 mps 744 mmHg 58%
    07:00 +37°C° 0 mm 4 mps 744 mmHg 57%
    08:00 +38°C° 0 mm 4 mps 745 mmHg 52%
    09:00 +40°C° 0 mm 3 mps 745 mmHg 47%
    10:00 +42°C° 0 mm 3 mps 745 mmHg 43%
    11:00 +43°C° 0 mm 3 mps 745 mmHg 40%
    12:00 +44°C° 0 mm 3 mps 745 mmHg 36%
    13:00 +45°C° 0 mm 4 mps 744 mmHg 33%
    14:00 +45°C° 0 mm 4 mps 744 mmHg 34%
    15:00 +46°C° 0 mm 5 mps 744 mmHg 35%
    16:00 +46°C° 0 mm 5 mps 744 mmHg 36%
    17:00 +43°C° 0 mm 5 mps 744 mmHg 42%
    18:00 +42°C° 0 mm 5 mps 744 mmHg 47%
    19:00 +40°C° 0 mm 5 mps 744 mmHg 53%
    20:00 +40°C° 0 mm 5 mps 744 mmHg 56%
    21:00 +38°C° 0 mm 4 mps 744 mmHg 59%
    22:00 +38°C° 0 mm 4 mps 745 mmHg 61%
    23:00 +37°C° 0 mm 4 mps 745 mmHg 60%

    Tomorrow, 17 July, Tuesday

    Time Temperature Precipitation Wind Pressure Humidity
    00:00 +37°C° 0 mm 4 mps 744 mmHg 59%
    01:00 +37°C° 0 mm 4 mps 744 mmHg 58%
    02:00 +37°C° 0 mm 4 mps 744 mmHg 56%
    03:00 +37°C° 0 mm 3 mps 744 mmHg 54%
    04:00 +36°C° 0 mm 3 mps 744 mmHg 52%
    05:00 +37°C° 0 mm 4 mps 744 mmHg 49%
    06:00 +37°C° 0 mm 4 mps 744 mmHg 47%
    07:00 +38°C° 0 mm 4 mps 745 mmHg 44%
    08:00 +40°C° 0 mm 4 mps 745 mmHg 41%
    09:00 +41°C° 0 mm 4 mps 746 mmHg 39%
    10:00 +42°C° 0 mm 4 mps 746 mmHg 36%
    11:00 +43°C° 0 mm 4 mps 746 mmHg 35%
    12:00 +44°C° 0 mm 4 mps 746 mmHg 34%
    13:00 +46°C° 0 mm 5 mps 745 mmHg 32%
    14:00 +45°C° 0 mm 5 mps 745 mmHg 33%
    15:00 +45°C° 0 mm 5 mps 745 mmHg 34%
    16:00 +45°C° 0 mm 5 mps 744 mmHg 34%
    17:00 +43°C° 0 mm 4 mps 744 mmHg 37%
    18:00 +42°C° 0 mm 4 mps 744 mmHg 39%
    19:00 +40°C° 0 mm 3 mps 744 mmHg 42%
    20:00 +39°C° 0 mm 3 mps 745 mmHg 44%
    21:00 +39°C° 0 mm 3 mps 745 mmHg 46%
    22:00 +38°C° 0 mm 2 mps 746 mmHg 48%
    23:00 +37°C° 0 mm 2 mps 746 mmHg 48%

    Day after tomorrow, 18 July, Wednesday

    Time Temperature Precipitation Wind Pressure Humidity
    00:00 +36°C° 0 mm 1 mps 746 mmHg 49%
    01:00 +35°C° 0 mm 1 mps 746 mmHg 49%
    02:00 +35°C° 0 mm 1 mps 745 mmHg 48%
    03:00 +35°C° 0 mm 1 mps 745 mmHg 47%
    04:00 +35°C° 0 mm 1 mps 745 mmHg 45%
    05:00 +35°C° 0 mm 1 mps 745 mmHg 44%
    06:00 +36°C° 0 mm 1 mps 746 mmHg 44%
    07:00 +36°C° 0 mm 1 mps 746 mmHg 43%
    08:00 +39°C° 0 mm 1 mps 746 mmHg 40%
    09:00 +40°C° 0 mm 1 mps 747 mmHg 38%
    10:00 +41°C° 0 mm 1 mps 747 mmHg 36%
    11:00 +42°C° 0 mm 2 mps 747 mmHg 34%
    12:00 +43°C° 0 mm 2 mps 746 mmHg 31%
    13:00 +45°C° 0 mm 3 mps 746 mmHg 29%
    14:00 +45°C° 0 mm 3 mps 746 mmHg 31%
    15:00 +44°C° 0 mm 4 mps 746 mmHg 33%
    16:00 +44°C° 0 mm 4 mps 745 mmHg 36%
    17:00 +43°C° 0 mm 3 mps 746 mmHg 39%
    18:00 +40°C° 0 mm 3 mps 746 mmHg 42%
    19:00 +39°C° 0 mm 3 mps 746 mmHg 45%
    20:00 +39°C° 0 mm 3 mps 746 mmHg 47%
    21:00 +38°C° 0 mm 3 mps 747 mmHg 50%
    22:00 +37°C° 0 mm 3 mps 747 mmHg 53%
    23:00 +37°C° 0 mm 3 mps 747 mmHg 57%

    19 July, Thursday

    Time Temperature Precipitation Wind Pressure Humidity
    00:00 +36°C° 0 mm 2 mps 746 mmHg 60%
    01:00 +36°C° 0 mm 2 mps 746 mmHg 63%
    02:00 +35°C° 0 mm 2 mps 746 mmHg 64%
    03:00 +35°C° 0 mm 2 mps 746 mmHg 64%
    04:00 +35°C° 0 mm 2 mps 746 mmHg 65%
    05:00 +35°C° 0 mm 2 mps 746 mmHg 62%
    06:00 +35°C° 0 mm 2 mps 746 mmHg 60%
    07:00 +36°C° 0 mm 3 mps 747 mmHg 57%
    08:00 +37°C° 0 mm 3 mps 747 mmHg 51%
    09:00 +39°C° 0 mm 3 mps 747 mmHg 45%
    10:00 +40°C° 0 mm 2 mps 747 mmHg 40%
    11:00 +42°C° 0 mm 3 mps 747 mmHg 38%
    12:00 +43°C° 0 mm 3 mps 747 mmHg 37%
    13:00 +44°C° 0 mm 3 mps 746 mmHg 35%
    14:00 +44°C° 0 mm 3 mps 746 mmHg 37%
    15:00 +43°C° 0 mm 4 mps 745 mmHg 39%
    16:00 +43°C° 0 mm 4 mps 745 mmHg 40%
    17:00 +42°C° 0 mm 3 mps 745 mmHg 43%
    18:00 +40°C° 0 mm 3 mps 745 mmHg 47%
    19:00 +39°C° 0 mm 3 mps 745 mmHg 50%
    20:00 +39°C° 0 mm 3 mps 745 mmHg 52%
    21:00 +38°C° 0 mm 3 mps 746 mmHg 54%
    22:00 +38°C° 0 mm 2 mps 746 mmHg 56%
    23:00 +37°C° 0 mm 2 mps 746 mmHg 58%

    20 July, Friday

    Time Temperature Precipitation Wind Pressure Humidity
    00:00 +37°C° 0 mm 2 mps 745 mmHg 61%
    01:00 +35°C° 0 mm 1 mps 745 mmHg 63%
    02:00 +36°C° 0 mm 2 mps 745 mmHg 64%
    03:00 +36°C° 0 mm 2 mps 745 mmHg 65%
    04:00 +35°C° 0 mm 2 mps 744 mmHg 67%
    05:00 +36°C° 0 mm 2 mps 745 mmHg 64%
    06:00 +36°C° 0 mm 3 mps 745 mmHg 61%
    07:00 +36°C° 0 mm 3 mps 745 mmHg 58%
    08:00 +38°C° 0 mm 3 mps 745 mmHg 53%
    09:00 +39°C° 0 mm 2 mps 746 mmHg 48%
    10:00 +40°C° 0 mm 2 mps 746 mmHg 43%
    11:00 +41°C° 0 mm 2 mps 745 mmHg 41%
    12:00 +42°C° 0 mm 2 mps 745 mmHg 39%
    13:00 +44°C° 0 mm 3 mps 745 mmHg 37%
    14:00 +44°C° 0 mm 3 mps 744 mmHg 38%
    15:00 +44°C° 0 mm 3 mps 744 mmHg 39%
    16:00 +44°C° 0 mm 3 mps 743 mmHg 40%
    17:00 +43°C° 0 mm 3 mps 744 mmHg 44%
    18:00 +42°C° 0 mm 3 mps 744 mmHg 47%
    19:00 +40°C° 0 mm 2 mps 744 mmHg 51%
    20:00 +39°C° 0 mm 2 mps 744 mmHg 53%
    21:00 +39°C° 0 mm 2 mps 745 mmHg 55%
    22:00 +38°C° 0 mm 2 mps 745 mmHg 57%
    23:00 +38°C° 0 mm 2 mps 745 mmHg 61%

    21 July, Saturday

    Time Temperature Precipitation Wind Pressure Humidity
    00:00 +36°C° 0 mm 1 mps 744 mmHg 65%
    01:00 +36°C° 0 mm 1 mps 744 mmHg 68%
    02:00 +36°C° 0 mm 1 mps 744 mmHg 67%
    03:00 +36°C° 0 mm 2 mps 744 mmHg 66%
    04:00 +36°C° 0 mm 2 mps 744 mmHg 66%
    05:00 +37°C° 0 mm 2 mps 744 mmHg 64%
    06:00 +37°C° 0 mm 2 mps 745 mmHg 62%
    07:00 +37°C° 0 mm 2 mps 745 mmHg 60%
    08:00 +39°C° 0 mm 2 mps 745 mmHg 56%
    09:00 +40°C° 0 mm 2 mps 746 mmHg 52%
    10:00 +41°C° 0 mm 2 mps 746 mmHg 48%
    11:00 +42°C° 0 mm 2 mps 745 mmHg 45%
    12:00 +43°C° 0 mm 2 mps 745 mmHg 43%
    13:00 +44°C° 0 mm 3 mps 745 mmHg 41%
    14:00 +44°C° 0 mm 3 mps 745 mmHg 42%
    15:00 +44°C° 0 mm 4 mps 744 mmHg 43%
    16:00 +44°C° 0 mm 4 mps 744 mmHg 43%
    17:00 +43°C° 0 mm 4 mps 744 mmHg 46%
    18:00 +42°C° 0 mm 3 mps 745 mmHg 48%
    19:00 +40°C° 0 mm 3 mps 745 mmHg 50%
    20:00 +40°C° 0 mm 2 mps 745 mmHg 50%
    21:00 +40°C° 0 mm 2 mps 745 mmHg 50%
    22:00 +39°C° 0 mm 2 mps 746 mmHg 50%
    23:00 +39°C° 0 mm 2 mps 745 mmHg 50%
    Show more